STARLINK-1573, 46061

Orbit data source: Space-Track

STARLINK-1573, 46061 is a payload satellite owned by SpaceX/Seattle (US) in LEO that was launched on Fri, 07 Aug 2020 UTC via an FALCON 9 launch vehicle from the Air Force Eastern Test Range (AFETR). Payload-class satellites include a variety of spacecraft equipped with specific instruments for various scientific and technological missions. These include communications satellites like Starlink; space stations such as the ISS; scientific satellites like the Hubble; Earth observation satellites from companies like Planet Labs, Umbra, and HawkEye 360; GPS; miniature CubeSats for education and research; and military/defense satellites.

Loading next visibility...
Identifier
46061, 2020-055AL
Orbit
LEO
Country
Flag of USUS
Related business
Manufacturer
SpaceX/Seattle
Mission
Operational Commercial Communications
Bus & Motor
STARLINK, Unknown motor
Mass
260 kg wet, ~248 kg dry
Launch date (UTC)
2020-08-07 (5 years ago)
Launch vehicle
FALCON 9
Launch site
Air Force Eastern Test Range (AFETR)
Object type
Payload
Rocket body
Debris
Shape & HBR
Box + 1 Pan, 4.4 m
Radar Cross Section
13.562 m², Large (>1 m²)

Expand to show TLE details & history
Last TLE update: 1 day ago

TLE from 1 day ago
0 STARLINK-1573
1 46061U 20055AL  25242.03887594  .00001490  00000-0  11893-3 0  9997
2 46061  53.0540 257.0132 0001092  89.1022 271.0092 15.06390878280143
Epoch: 2025-08-30T00:55Z
TLE epoch observation values (Epoch: 2025-08-30T00:55:58.881Z)
Latitude
-0.00001°
Longitude
-95.46105°
Altitude
548.105 km
Speed
7.589 km/s
True Right ascension
17h 08m 03s
True Declination
0° 00' 00"
Sunlit
Object was in daylight at epoch
Visualization orbit readout
Latitude
Unknown
Longitude
Unknown
Altitude
Unknown
Speed
Unknown
Apparent Right ascension
Unknown
Apparent Declination
Unknown
Sunlit
N/A
Visualization observer readout
Local Sidereal Time
16:44:02
Azimuth
Unknown
Elevation
Unknown
Doppler factor
Unknown
Orbital elements
Apogee altitude
548.267 km
Perigee altitude
546.754 km
Semi-major axis
6,925.647 km
Eccentricity
0.00011
Inclination
53.054°
RAAN
257.0132°
Arg. of periapsis
89.1022°
True anomaly
270.99669°
Mean anomaly
271.0092°
Eccentric anomaly
271.00294°
Mean motion
3.76576 °/min
Orbital period
95.6 mins
BSTAR
0.00011893
Loading maneuver chart data...
Computing Atmospheric mass density...
Loading historical data...
Loading historical data...
Loading historical data...
Loading historical data...
Loading historical data...
Loading historical data...
Loading historical data...

Documentation

Showing up to 5 results
|